When you browse on this site, cookies collect data to enhance your experience and personalize the content and advertising you see.
Visit our Privacy Policy to learn more. By continuing to use the site, you agree to this use of cookies and data.
  • In Lithuania
  • List of Countries
  • For 7 days
  • Water Temperature
  • Satellite Maps
  • Weather Map
  • Weather Widgets
  • user-avatar
    Login

    Hourly Weather Musajid

    Today, 23 July, Tuesday

    Time Temperature Precipitation Wind Pressure Humidity
    00:00 +34°C° 0 mm 2 mps 747 mmHg 66%
    01:00 +32°C° 0 mm 2 mps 746 mmHg 66%
    02:00 +32°C° 0 mm 1 mps 746 mmHg 67%
    03:00 +32°C° 0 mm 1 mps 745 mmHg 65%
    04:00 +32°C° 0 mm 2 mps 746 mmHg 61%
    05:00 +34°C° 0 mm 2 mps 747 mmHg 58%
    06:00 +34°C° 0 mm 2 mps 747 mmHg 54%
    07:00 +36°C° 0 mm 2 mps 747 mmHg 50%
    08:00 +37°C° 0 mm 2 mps 747 mmHg 46%
    09:00 +39°C° 0 mm 2 mps 748 mmHg 42%
    10:00 +39°C° 0 mm 3 mps 747 mmHg 41%
    11:00 +40°C° 0 mm 3 mps 747 mmHg 39%
    12:00 +42°C° 0 mm 4 mps 747 mmHg 37%
    13:00 +42°C° 0 mm 4 mps 746 mmHg 37%
    14:00 +42°C° 0 mm 3 mps 746 mmHg 38%
    15:00 +42°C° 0 mm 3 mps 746 mmHg 38%
    16:00 +41°C° 0 mm 4 mps 746 mmHg 43%
    17:00 +38°C° 0 mm 4 mps 746 mmHg 48%
    18:00 +37°C° 0 mm 5 mps 746 mmHg 53%
    19:00 +36°C° 0 mm 5 mps 746 mmHg 58%
    20:00 +36°C° 0 mm 5 mps 747 mmHg 64%
    21:00 +35°C° 0 mm 5 mps 747 mmHg 69%
    22:00 +35°C° 0 mm 5 mps 747 mmHg 71%
    23:00 +35°C° 0 mm 6 mps 747 mmHg 72%

    Tomorrow, 24 July, Wednesday

    Time Temperature Precipitation Wind Pressure Humidity
    00:00 +35°C° 0 mm 6 mps 747 mmHg 73%
    01:00 +35°C° 0 mm 6 mps 747 mmHg 76%
    02:00 +35°C° 0 mm 6 mps 747 mmHg 79%
    03:00 +34°C° 0 mm 5 mps 746 mmHg 81%
    04:00 +35°C° 0 mm 4 mps 747 mmHg 80%
    05:00 +35°C° 0 mm 3 mps 747 mmHg 78%
    06:00 +35°C° 0 mm 2 mps 748 mmHg 76%
    07:00 +36°C° 0 mm 1 mps 748 mmHg 68%
    08:00 +37°C° 0 mm 1 mps 748 mmHg 59%
    09:00 +40°C° 0 mm 1 mps 749 mmHg 50%
    10:00 +40°C° 0 mm 2 mps 748 mmHg 49%
    11:00 +42°C° 0 mm 3 mps 748 mmHg 48%
    12:00 +42°C° 0 mm 4 mps 748 mmHg 48%
    13:00 +43°C° 0 mm 4 mps 747 mmHg 46%
    14:00 +43°C° 0 mm 4 mps 747 mmHg 45%
    15:00 +43°C° 0 mm 4 mps 747 mmHg 43%
    16:00 +42°C° 0 mm 4 mps 747 mmHg 46%
    17:00 +41°C° 0 mm 4 mps 747 mmHg 50%
    18:00 +40°C° 0 mm 5 mps 747 mmHg 53%
    19:00 +38°C° 0 mm 4 mps 747 mmHg 55%
    20:00 +37°C° 0 mm 4 mps 747 mmHg 57%
    21:00 +37°C° 0 mm 3 mps 748 mmHg 59%
    22:00 +37°C° 0 mm 3 mps 748 mmHg 58%
    23:00 +37°C° 0 mm 3 mps 748 mmHg 56%

    Day after tomorrow, 25 July, Thursday

    Time Temperature Precipitation Wind Pressure Humidity
    00:00 +37°C° 0 mm 3 mps 748 mmHg 54%
    01:00 +36°C° 0 mm 4 mps 748 mmHg 58%
    02:00 +36°C° 0 mm 4 mps 748 mmHg 62%
    03:00 +36°C° 0 mm 5 mps 747 mmHg 67%
    04:00 +36°C° 0 mm 5 mps 748 mmHg 67%
    05:00 +36°C° 0 mm 4 mps 748 mmHg 67%
    06:00 +36°C° 0 mm 4 mps 749 mmHg 68%
    07:00 +38°C° 0 mm 3 mps 749 mmHg 60%
    08:00 +39°C° 0 mm 3 mps 749 mmHg 52%
    09:00 +42°C° 0 mm 3 mps 750 mmHg 44%
    10:00 +43°C° 0 mm 4 mps 749 mmHg 41%
    11:00 +43°C° 0 mm 4 mps 749 mmHg 38%
    12:00 +44°C° 0 mm 4 mps 749 mmHg 34%
    13:00 +45°C° 0 mm 5 mps 748 mmHg 35%
    14:00 +45°C° 0 mm 5 mps 748 mmHg 36%
    15:00 +45°C° 0 mm 6 mps 747 mmHg 36%
    16:00 +42°C° 0 mm 5 mps 747 mmHg 40%
    17:00 +41°C° 0 mm 5 mps 747 mmHg 44%
    18:00 +40°C° 0 mm 4 mps 747 mmHg 48%
    19:00 +39°C° 0 mm 3 mps 747 mmHg 49%
    20:00 +38°C° 0 mm 3 mps 747 mmHg 49%
    21:00 +38°C° 0 mm 2 mps 748 mmHg 50%
    22:00 +38°C° 0 mm 2 mps 747 mmHg 50%
    23:00 +37°C° 0 mm 2 mps 747 mmHg 50%

    26 July, Friday

    Time Temperature Precipitation Wind Pressure Humidity
    00:00 +37°C° 0 mm 2 mps 747 mmHg 49%
    01:00 +37°C° 0 mm 2 mps 747 mmHg 50%
    02:00 +37°C° 0 mm 3 mps 747 mmHg 51%
    03:00 +36°C° 0 mm 4 mps 747 mmHg 53%
    04:00 +37°C° 0 mm 3 mps 747 mmHg 52%
    05:00 +37°C° 0 mm 2 mps 747 mmHg 51%
    06:00 +36°C° 0 mm 1 mps 748 mmHg 50%
    07:00 +39°C° 0 mm 1 mps 748 mmHg 44%
    08:00 +41°C° 0 mm 2 mps 748 mmHg 38%
    09:00 +43°C° 0 mm 2 mps 748 mmHg 33%
    10:00 +45°C° 0 mm 2 mps 748 mmHg 29%
    11:00 +46°C° 0 mm 2 mps 747 mmHg 25%
    12:00 +47°C° 0 mm 2 mps 747 mmHg 22%
    13:00 +47°C° 0 mm 3 mps 746 mmHg 23%
    14:00 +48°C° 0 mm 4 mps 746 mmHg 25%
    15:00 +47°C° 0 mm 5 mps 745 mmHg 27%
    16:00 +45°C° 0 mm 4 mps 745 mmHg 32%
    17:00 +43°C° 0 mm 4 mps 745 mmHg 37%
    18:00 +41°C° 0 mm 4 mps 745 mmHg 43%
    19:00 +38°C° 0 mm 3 mps 745 mmHg 47%
    20:00 +37°C° 0 mm 2 mps 746 mmHg 51%
    21:00 +35°C° 0 mm 1 mps 746 mmHg 56%
    22:00 +34°C° 0 mm 1 mps 746 mmHg 55%
    23:00 +34°C° 0 mm 1 mps 745 mmHg 55%

    27 July, Saturday

    Time Temperature Precipitation Wind Pressure Humidity
    00:00 +34°C° 0 mm 1 mps 745 mmHg 54%
    01:00 +33°C° 0 mm 1 mps 745 mmHg 54%
    02:00 +33°C° 0 mm 1 mps 745 mmHg 54%
    03:00 +32°C° 0 mm 1 mps 745 mmHg 53%
    04:00 +33°C° 0 mm 1 mps 745 mmHg 50%
    05:00 +35°C° 0 mm 2 mps 746 mmHg 46%
    06:00 +35°C° 0 mm 2 mps 746 mmHg 43%
    07:00 +37°C° 0 mm 2 mps 746 mmHg 38%
    08:00 +40°C° 0 mm 2 mps 746 mmHg 33%
    09:00 +42°C° 0 mm 2 mps 746 mmHg 28%
    10:00 +43°C° 0 mm 3 mps 746 mmHg 28%
    11:00 +44°C° 0 mm 3 mps 745 mmHg 28%
    12:00 +45°C° 0 mm 4 mps 745 mmHg 28%
    13:00 +44°C° 0 mm 4 mps 745 mmHg 30%
    14:00 +43°C° 0 mm 4 mps 745 mmHg 33%
    15:00 +43°C° 0 mm 4 mps 744 mmHg 35%
    16:00 +41°C° 0 mm 4 mps 744 mmHg 40%
    17:00 +39°C° 0 mm 3 mps 745 mmHg 44%
    18:00 +38°C° 0 mm 3 mps 745 mmHg 49%
    19:00 +37°C° 0 mm 2 mps 745 mmHg 53%
    20:00 +36°C° 0 mm 2 mps 745 mmHg 57%
    21:00 +33°C° 0 mm 1 mps 746 mmHg 61%
    22:00 +33°C° 0 mm 1 mps 745 mmHg 61%
    23:00 +34°C° 0 mm 2 mps 745 mmHg 61%

    28 July, Sunday

    Time Temperature Precipitation Wind Pressure Humidity
    00:00 +32°C° 0 mm 2 mps 745 mmHg 61%
    01:00 +32°C° 0 mm 2 mps 745 mmHg 63%
    02:00 +33°C° 0 mm 3 mps 745 mmHg 65%
    03:00 +33°C° 0 mm 3 mps 745 mmHg 68%
    04:00 +34°C° 0 mm 3 mps 745 mmHg 68%
    05:00 +34°C° 0 mm 2 mps 746 mmHg 68%
    06:00 +33°C° 0 mm 1 mps 746 mmHg 69%
    07:00 +35°C° 0 mm 1 mps 746 mmHg 58%
    08:00 +37°C° 0 mm 1 mps 747 mmHg 47%
    09:00 +40°C° 0 mm 1 mps 747 mmHg 36%
    10:00 +41°C° 0 mm 2 mps 747 mmHg 35%
    11:00 +43°C° 0 mm 3 mps 746 mmHg 35%
    12:00 +43°C° 0 mm 3 mps 746 mmHg 34%
    13:00 +44°C° 0 mm 4 mps 746 mmHg 33%
    14:00 +44°C° 0 mm 4 mps 745 mmHg 31%
    15:00 +44°C° 0 mm 4 mps 745 mmHg 30%
    16:00 +42°C° 0 mm 4 mps 745 mmHg 38%
    17:00 +41°C° 0 mm 5 mps 745 mmHg 45%
    18:00 +39°C° 0 mm 5 mps 745 mmHg 53%
    19:00 +37°C° 0 mm 5 mps 746 mmHg 57%
    20:00 +37°C° 0 mm 4 mps 746 mmHg 60%
    21:00 +36°C° 0 mm 4 mps 747 mmHg 64%
    22:00 +36°C° 0 mm 4 mps 746 mmHg 64%
    23:00 +36°C° 0 mm 4 mps 746 mmHg 64%
    Show more